Regional Weather Roundup
Issued by NWS Northern Indiana

Home | Current Version | Previous Version | Text Only | Print | Product List | Glossary Off
Versions: 1 2 3 4 5 6 7 8 9 10 11 12 13 14 15 16 17 18 19 20 21 22 23 24 25 26 27 28 29 30 31 32 33 34 35 36 37 38 39 40 41 42 43 44 45 46 47 48 49 50

000
ASUS43 KIWX 011100
RWRIWX

KIWX WEATHER ROUNDUP
NATIONAL WEATHER SERVICE NORTHERN INDIANA
700 AM EDT WED APR 01 2015

NOTE: "FAIR" INDICATES FEW OR NO CLOUDS BELOW 12,000 FEET WITH NO
SIGNIFICANT WEATHER AND/OR OBSTRUCTIONS TO VISIBILITY.

* THESE STATIONS ARE NOT UNDER NWS QUALITY CONTROL. THEY ALSO MAY NOT
  REPORT WEATHER SUCH AS PRECIPITATION OR FOG.

INZ001>027-011200-
NORTHERN INDIANA

CITY           SKY/WX    TMP DP  RH WIND       PRES   REMARKS
GARY*          CLEAR     43  32  65 SW8       30.01R
SOUTH BEND     CLEAR     37  29  72 S3        30.02R
ELKHART*       CLEAR     30  28  93 CALM      30.02
GOSHEN         CLEAR     36  30  79 S3        30.02R
ANGOLA*        CLEAR     30  28  93 CALM      30.01R
FORT WAYNE     CLEAR     32  29  88 SW3       30.03R

$$
INZ028>050-011200-
CENTRAL INDIANA

CITY           SKY/WX    TMP DP  RH WIND       PRES   REMARKS
LAFAYETTE      CLEAR     37  32  82 CALM      30.04R
KOKOMO*          N/A     36  30  80 S8        30.03R
MUNCIE*        CLEAR     37  33  85 SW7       30.04R
INDIANAPOLIS   CLEAR     38  32  79 S5        30.04R

$$
MIZ043>046-050>051-056>058-064>065-071>073-077>080-011200-
SOUTHWEST LOWER MICHIGAN

CITY           SKY/WX    TMP DP  RH WIND       PRES   REMARKS
BATTLE CREEK   CLEAR     29  25  85 CALM      30.02R
BENTON HARBOR  CLEAR     28  27  96 SE3       30.02R
COLDWATER*     CLEAR     30  28  94 CALM      30.02R
HILLSDALE*     FOG       31  31 100 CALM      30.01R VSB 1/2
HOLLAND        CLEAR     33  28  81 CALM      30.02R
GRAND RAPIDS   CLEAR     28  24  85 CALM      30.01R
KALAMAZOO      CLEAR     31  27  85 CALM      30.02R
STURGIS*       CLEAR     32  30  93 CALM      30.01R
THREE RIVERS*  FAIR      30  27  88 CALM      30.03R

$$
OHZ001>008-015>018-024>025-011200-
NORTHWEST OHIO

CITY           SKY/WX    TMP DP  RH WIND       PRES   REMARKS
DEFIANCE       CLEAR     31  28  89 CALM      30.04R FOG
FINDLAY        CLEAR     31  28  89 SE7       30.04R WCI  24
TOLEDO EXPRESS CLEAR     31  29  92 CALM      30.03R FOG
TOLEDO METCALF CLEAR     31  27  85 CALM      30.05R
LIMA           CLEAR     34  30  85 S10       30.03R WCI  26

$$
AND FOR LAKE MICHIGAN COASTAL AND OPEN LAKE BUOY OBSERVATIONS

STATION/POSITION TEMP    WIND        PRES    VSBY  WAVE
                 AIR SEA DIR/SP/G                  HT/PER
                 (F)     (DEG/KT/KT) (MB)    (MI)  (FT/S)
CALUMET HARBOR    44     210/  7/ 10 1014.4R
MICHIGAN CITY     44     160/ 11/ 14   N/A
BURNS HARBOR      42     180/ 11/ 14 1016.3R
SAINT JOSEPH      35      30/  3/  9 1017.3R

$$
&&


USA.gov is the U.S. government's official web portal to all federal, state and local government web resources and services.